FW8431 Weather Reports


Display with metric or nautical units.
time (UTC)temp
F
wind
direction
speed
MPH
gust
MPH
rain 1hr
in
rain 24hr
in
rain mn
in
humidity
%
barometer
mb
20260906123135 65 0 0.0 0.0 0.00 0.23 0.00 98 1018.7
20260906121554 65 0 0.0 0.0 0.00 0.23 0.00 98 1018.6
20260906120109 65 0 0.0 0.0 0.00 0.23 0.00 98 1018.5
20260906114606 65 0 0.0 0.0 0.00 0.23 0.00 98 1018.2
20260906113057 65 0 0.0 0.0 0.00 0.23 0.00 98 1018.0
20260906111554 65 0 0.0 0.0 0.00 0.23 0.00 98 1018.1
20260906110052 65 0 0.0 0.0 0.00 0.23 0.00 98 1018.0
20260906104557 65 0 0.0 0.0 0.00 0.23 0.00 98 1017.9
20260906103059 66 0 0.0 0.0 0.00 0.23 0.00 98 1017.8
20260906101603 66 0 0.0 0.0 0.00 0.23 0.00 98 1017.7
20260906100101 66 0 0.0 0.0 0.00 0.23 0.00 98 1017.8
20260906094606 66 0 0.0 0.0 0.00 0.23 0.00 98 1017.7
20260906093058 66 0 0.0 0.0 0.00 0.23 0.00 98 1017.7
20260906091604 66 0 0.0 0.0 0.00 0.23 0.00 98 1017.7
20260906090104 66 0 0.0 0.0 0.00 0.23 0.00 98 1017.8
20260906084559 66 0 0.0 0.0 0.00 0.23 0.00 98 1017.7
20260906083056 66 0 0.0 0.0 0.00 0.23 0.00 98 1017.7
20260906081558 66 0 0.0 0.0 0.00 0.23 0.00 98 1017.7
20260906080104 66 0 0.0 0.0 0.00 0.23 0.00 98 1017.7
20260906074605 66 0 0.0 0.0 0.00 0.23 0.00 97 1017.6
20260906073103 66 0 0.0 0.0 0.00 0.23 0.00 97 1017.6
20260906071601 66 0 0.0 0.0 0.00 0.23 0.00 97 1017.6
20260906070105 66 0 0.0 0.0 0.00 0.23 0.00 97 1017.8
20260906064558 66 0 0.0 0.0 0.00 0.23 0.00 97 1017.8
20260906063103 66 0 0.0 0.0 0.00 0.23 0.00 97 1017.9
20260906061555 66 0 0.0 0.0 0.00 0.23 0.00 97 1018.0
20260906060106 66 0 0.0 0.0 0.00 0.23 0.00 97 1018.4
20260906054559 66 0 0.0 0.0 0.00 0.23 0.00 97 1018.5
20260906053106 67 0 0.0 0.0 0.00 0.23 0.00 97 1018.4
20260906051600 67 0 0.0 0.0 0.00 0.23 0.00 97 1018.7
20260906050106 67 0 0.0 0.0 0.00 0.23 0.00 97 1018.6
20260906044558 67 0 0.0 0.0 0.00 0.23 0.00 97 1018.8
20260906043101 67 0 0.0 0.0 0.00 0.23 0.00 97 1018.9
20260906041606 67 0 0.0 0.0 0.00 0.23 0.00 96 1019.0
20260906040112 67 0 0.0 0.0 0.00 0.23 0.00 97 1018.6
20260906034603 68 0 0.0 0.0 0.00 0.23 0.23 97 1018.6
20260906033110 68 0 0.0 0.0 0.00 0.23 0.23 96 1019.0
20260906031603 68 0 0.0 0.0 0.00 0.23 0.23 96 1019.1
20260906030107 68 0 0.0 0.0 0.00 0.23 0.23 96 1019.3
20260906024608 68 0 0.0 0.0 0.00 0.23 0.23 96 1019.1
20260906023104 68 0 0.0 3.0 0.00 0.23 0.23 95 1018.8
20260906021602 68 0 0.0 0.0 0.00 0.23 0.23 95 1018.7
20260906020110 69 0 0.0 0.0 0.00 0.23 0.23 95 1018.2
20260906014604 69 0 0.0 0.0 0.00 0.23 0.23 94 1018.1
20260906013110 69 0 0.0 2.0 0.00 0.23 0.23 94 1018.2
20260906011607 70 0 0.0 2.0 0.00 0.23 0.23 94 1018.1
20260906010107 70 0 0.0 2.0 0.00 0.23 0.23 93 1018.1
20260906004611 71 0 0.0 2.0 0.00 0.23 0.23 93 1018.1
20260906003105 71 244 0.0 2.0 0.00 0.23 0.23 92 1017.8
20260906001559 71 0 0.0 2.0 0.00 0.23 0.23 91 1017.8
20260906000059 72 0 0.0 2.0 0.00 0.23 0.23 91 1017.9
20260905234552 73 0 0.0 2.0 0.00 0.23 0.23 89 1017.7
20260905233100 74 241 0.0 2.0 0.00 0.23 0.23 87 1017.6
20260905231556 75 0 0.0 2.0 0.00 0.23 0.23 85 1017.4
20260905230058 76 241 0.0 3.0 0.00 0.23 0.23 84 1017.4
20260905224559 78 241 0.0 2.0 0.00 0.23 0.23 79 1017.4
20260905223106 78 241 0.0 3.0 0.00 0.23 0.23 78 1017.3
20260905221605 78 241 1.0 5.0 0.00 0.23 0.23 78 1017.5
20260905214604 78 234 4.0 7.0 0.00 0.23 0.23 78 1017.6
20260905213111 78 0 1.0 4.0 0.00 0.23 0.23 79 1017.9
20260905211604 77 248 2.0 6.0 0.00 0.23 0.23 81 1018.2
20260905210123 77 240 4.0 8.0 0.00 0.23 0.23 82 1018.4
20260905204602 76 227 3.0 8.0 0.00 0.23 0.23 84 1018.3
20260905203104 75 238 4.0 6.0 0.00 0.23 0.23 85 1018.2
20260905201607 75 214 1.0 4.0 0.00 0.23 0.23 87 1018.4
20260905194608 72 215 2.0 5.0 0.00 0.23 0.23 90 1019.3
20260905193104 71 212 0.0 4.0 0.00 0.23 0.23 91 1019.4
20260905191610 71 0 0.0 3.0 0.03 0.23 0.23 91 1019.2
20260905190109 71 212 0.0 3.0 0.04 0.23 0.23 90 1019.5
20260905184625 72 227 2.0 8.0 0.04 0.23 0.23 89 1019.8
20260905183129 72 296 1.0 3.0 0.04 0.23 0.23 90 1019.4
20260905181607 73 252 4.0 8.0 0.01 0.20 0.20 85 1019.7
20260905180100 75 246 2.0 9.0 0.00 0.19 0.19 85 1019.6
20260905174603 78 236 6.0 13.0 0.00 0.19 0.19 84 1019.5
20260905173116 78 128 3.0 8.0 0.00 0.19 0.19 82 1019.6
20260905171624 77 192 2.0 6.0 0.19 0.19 0.19 96 1019.9
20260905170101 74 84 1.0 4.0 0.19 0.19 0.19 96 1020.0
20260905164559 73 34 0.0 4.0 0.19 0.19 0.19 93 1019.7
20260905163102 74 27 2.0 9.0 0.19 0.19 0.19 86 1020.2
20260905161603 80 0 0.0 4.0 0.00 0.00 0.00 80 1020.3
20260905160059 81 0 0.0 2.0 0.00 0.00 0.00 77 1020.3
20260905154615 80 199 1.0 2.0 0.00 0.00 0.00 79 1020.2
20260905153102 80 199 0.0 2.0 0.00 0.00 0.00 80 1020.4
20260905151613 79 0 1.0 3.0 0.00 0.00 0.00 79 1020.3
20260905150056 78 198 0.0 4.0 0.00 0.00 0.00 84 1020.3
20260905144555 76 198 0.0 3.0 0.00 0.00 0.00 86 1020.2
20260905143055 75 198 1.0 3.0 0.00 0.00 0.00 90 1020.2
20260905141602 73 198 0.0 4.0 0.00 0.00 0.00 92 1020.5
20260905140059 71 198 1.0 3.0 0.00 0.00 0.00 94 1020.6
20260905134556 70 198 1.0 3.0 0.00 0.00 0.00 96 1020.8
20260905133053 69 0 1.0 2.0 0.00 0.00 0.00 98 1020.8
20260905131552 68 0 0.0 2.0 0.00 0.00 0.00 98 1020.8
20260905130059 68 0 0.0 1.0 0.00 0.00 0.00 98 1020.9
20260905124557 66 0 0.0 0.0 0.00 0.00 0.00 98 1021.1